• In Netherlands
  • List of Countries
  • For 7 days
  • Water Temperature
  • Satellite Maps
  • Weather Map
  • Weather Widgets
  • user-avatar
    Login

    Hourly Weather Batina

    Today, 19 November, Sunday

    Time Temperature Precipitation Wind Pressure Humidity
    00:00 +7°C° 0 mm 1 mps 671 mmHg 82%
    01:00 +7°C° 0 mm 1 mps 671 mmHg 81%
    02:00 +7°C° 0 mm 1 mps 671 mmHg 81%
    03:00 +6°C° 0 mm 1 mps 671 mmHg 81%
    04:00 +6°C° 0 mm 1 mps 671 mmHg 80%
    05:00 +6°C° 0 mm 1 mps 671 mmHg 79%
    06:00 +5°C° 0 mm 1 mps 671 mmHg 78%
    07:00 +7°C° 0 mm 1 mps 672 mmHg 71%
    08:00 +9°C° 0 mm 1 mps 672 mmHg 64%
    09:00 +10°C° 0 mm 1 mps 673 mmHg 58%
    10:00 +10°C° 0 mm 2 mps 673 mmHg 53%
    11:00 +12°C° 0 mm 2 mps 673 mmHg 48%
    12:00 +13°C° 0 mm 2 mps 673 mmHg 43%
    13:00 +13°C° 0 mm 2 mps 673 mmHg 42%
    14:00 +13°C° 0 mm 2 mps 673 mmHg 41%
    15:00 +13°C° 0 mm 2 mps 673 mmHg 40%
    16:00 +12°C° 0 mm 2 mps 673 mmHg 46%
    17:00 +10°C° 0 mm 2 mps 673 mmHg 52%
    18:00 +10°C° 0 mm 1 mps 672 mmHg 57%
    19:00 +9°C° 0 mm 1 mps 673 mmHg 61%
    20:00 +8°C° 0 mm 1 mps 673 mmHg 64%
    21:00 +8°C° 0 mm 1 mps 673 mmHg 68%
    22:00 +8°C° 0 mm 1 mps 673 mmHg 69%
    23:00 +7°C° 0 mm 1 mps 673 mmHg 70%

    Tomorrow, 20 November, Monday

    Time Temperature Precipitation Wind Pressure Humidity
    00:00 +7°C° 0 mm 1 mps 673 mmHg 72%
    01:00 +6°C° 0 mm 1 mps 673 mmHg 70%
    02:00 +6°C° 0 mm 1 mps 673 mmHg 69%
    03:00 +6°C° 0 mm 1 mps 673 mmHg 68%
    04:00 +6°C° 0 mm 1 mps 673 mmHg 65%
    05:00 +5°C° 0 mm 1 mps 672 mmHg 62%
    06:00 +5°C° 0 mm 1 mps 672 mmHg 59%
    07:00 +6°C° 0 mm 0 mps 673 mmHg 50%
    08:00 +9°C° 0 mm 0 mps 674 mmHg 40%
    09:00 +11°C° 0 mm 0 mps 675 mmHg 30%
    10:00 +13°C° 0 mm 1 mps 675 mmHg 27%
    11:00 +14°C° 0 mm 1 mps 676 mmHg 24%
    12:00 +15°C° 0 mm 1 mps 676 mmHg 21%
    13:00 +15°C° 0 mm 1 mps 675 mmHg 21%
    14:00 +15°C° 0 mm 1 mps 675 mmHg 22%
    15:00 +15°C° 0 mm 1 mps 675 mmHg 22%
    16:00 +13°C° 0 mm 1 mps 675 mmHg 27%
    17:00 +12°C° 0 mm 1 mps 674 mmHg 33%
    18:00 +10°C° 0 mm 1 mps 674 mmHg 38%
    19:00 +10°C° 0 mm 1 mps 674 mmHg 39%
    20:00 +9°C° 0 mm 1 mps 674 mmHg 40%
    21:00 +9°C° 0 mm 1 mps 674 mmHg 42%
    22:00 +9°C° 0 mm 1 mps 674 mmHg 42%
    23:00 +8°C° 0 mm 1 mps 674 mmHg 43%

    Day after tomorrow, 21 November, Tuesday

    Time Temperature Precipitation Wind Pressure Humidity
    00:00 +8°C° 0 mm 1 mps 674 mmHg 44%
    01:00 +8°C° 0 mm 1 mps 674 mmHg 44%
    02:00 +6°C° 0 mm 2 mps 673 mmHg 45%
    03:00 +6°C° 0 mm 2 mps 673 mmHg 46%
    04:00 +6°C° 0 mm 2 mps 673 mmHg 46%
    05:00 +7°C° 0 mm 1 mps 673 mmHg 45%
    06:00 +6°C° 0 mm 1 mps 673 mmHg 45%
    07:00 +8°C° 0 mm 1 mps 673 mmHg 40%
    08:00 +10°C° 0 mm 1 mps 674 mmHg 34%
    09:00 +13°C° 0 mm 2 mps 675 mmHg 28%
    10:00 +14°C° 0 mm 2 mps 675 mmHg 26%
    11:00 +14°C° 0 mm 2 mps 675 mmHg 24%
    12:00 +15°C° 0 mm 2 mps 675 mmHg 22%
    13:00 +15°C° 0 mm 2 mps 675 mmHg 22%
    14:00 +15°C° 0 mm 2 mps 674 mmHg 22%
    15:00 +15°C° 0 mm 2 mps 674 mmHg 22%
    16:00 +14°C° 0 mm 1 mps 673 mmHg 27%
    17:00 +12°C° 0 mm 1 mps 673 mmHg 32%
    18:00 +10°C° 0 mm 1 mps 672 mmHg 37%
    19:00 +10°C° 0 mm 1 mps 672 mmHg 38%
    20:00 +9°C° 0 mm 1 mps 673 mmHg 39%
    21:00 +9°C° 0 mm 1 mps 673 mmHg 39%
    22:00 +8°C° 0 mm 1 mps 672 mmHg 40%
    23:00 +8°C° 0 mm 1 mps 672 mmHg 40%

    22 November, Wednesday

    Time Temperature Precipitation Wind Pressure Humidity
    00:00 +8°C° 0 mm 1 mps 672 mmHg 40%
    01:00 +7°C° 0 mm 1 mps 671 mmHg 41%
    02:00 +7°C° 0 mm 1 mps 671 mmHg 41%
    03:00 +7°C° 0 mm 1 mps 671 mmHg 42%
    04:00 +6°C° 0 mm 1 mps 671 mmHg 42%
    05:00 +6°C° 0 mm 1 mps 671 mmHg 42%
    06:00 +6°C° 0 mm 1 mps 670 mmHg 42%
    07:00 +8°C° 0 mm 1 mps 671 mmHg 36%
    08:00 +10°C° 0 mm 1 mps 672 mmHg 30%
    09:00 +13°C° 0 mm 1 mps 673 mmHg 24%
    10:00 +14°C° 0 mm 1 mps 673 mmHg 21%
    11:00 +15°C° 0 mm 1 mps 673 mmHg 19%
    12:00 +16°C° 0 mm 2 mps 673 mmHg 17%
    13:00 +16°C° 0 mm 2 mps 673 mmHg 18%
    14:00 +16°C° 0 mm 2 mps 673 mmHg 18%
    15:00 +16°C° 0 mm 2 mps 673 mmHg 19%
    16:00 +14°C° 0 mm 2 mps 672 mmHg 23%
    17:00 +12°C° 0 mm 2 mps 672 mmHg 27%
    18:00 +11°C° 0 mm 1 mps 672 mmHg 31%
    19:00 +10°C° 0 mm 1 mps 672 mmHg 32%
    20:00 +10°C° 0 mm 1 mps 672 mmHg 33%
    21:00 +9°C° 0 mm 1 mps 672 mmHg 33%
    22:00 +9°C° 0 mm 1 mps 672 mmHg 33%
    23:00 +8°C° 0 mm 2 mps 672 mmHg 33%

    23 November, Thursday

    Time Temperature Precipitation Wind Pressure Humidity
    00:00 +8°C° 0 mm 2 mps 672 mmHg 33%
    01:00 +7°C° 0 mm 2 mps 672 mmHg 34%
    02:00 +7°C° 0 mm 2 mps 671 mmHg 35%
    03:00 +8°C° 0 mm 1 mps 671 mmHg 35%
    04:00 +7°C° 0 mm 1 mps 671 mmHg 36%
    05:00 +7°C° 0 mm 1 mps 672 mmHg 37%
    06:00 +7°C° 0 mm 1 mps 672 mmHg 38%
    07:00 +9°C° 0 mm 1 mps 673 mmHg 34%
    08:00 +11°C° 0 mm 1 mps 674 mmHg 30%
    09:00 +13°C° 0 mm 2 mps 675 mmHg 27%
    10:00 +14°C° 0 mm 2 mps 675 mmHg 26%
    11:00 +15°C° 0 mm 2 mps 675 mmHg 24%
    12:00 +16°C° 0 mm 2 mps 675 mmHg 23%
    13:00 +16°C° 0 mm 2 mps 675 mmHg 24%
    14:00 +16°C° 0 mm 2 mps 675 mmHg 24%
    15:00 +16°C° 0 mm 2 mps 675 mmHg 25%
    16:00 +15°C° 0 mm 2 mps 675 mmHg 28%
    17:00 +13°C° 0 mm 1 mps 675 mmHg 32%
    18:00 +12°C° 0 mm 1 mps 674 mmHg 36%
    19:00 +11°C° 0 mm 1 mps 675 mmHg 37%
    20:00 +11°C° 0 mm 1 mps 675 mmHg 37%
    21:00 +11°C° 0 mm 1 mps 675 mmHg 38%
    22:00 +10°C° 0 mm 1 mps 675 mmHg 38%
    23:00 +10°C° 0 mm 1 mps 674 mmHg 39%

    24 November, Friday

    Time Temperature Precipitation Wind Pressure Humidity
    00:00 +9°C° 0 mm 1 mps 674 mmHg 40%
    01:00 +9°C° 0 mm 1 mps 674 mmHg 40%
    02:00 +9°C° 0 mm 1 mps 674 mmHg 40%
    03:00 +9°C° 0 mm 1 mps 674 mmHg 40%
    04:00 +8°C° 0 mm 1 mps 674 mmHg 40%
    05:00 +8°C° 0 mm 1 mps 674 mmHg 41%
    06:00 +8°C° 0 mm 1 mps 674 mmHg 41%
    07:00 +10°C° 0 mm 1 mps 675 mmHg 37%
    08:00 +12°C° 0 mm 1 mps 676 mmHg 32%
    09:00 +14°C° 0 mm 1 mps 677 mmHg 28%
    10:00 +15°C° 0 mm 1 mps 677 mmHg 26%
    11:00 +16°C° 0 mm 2 mps 677 mmHg 25%
    12:00 +17°C° 0 mm 2 mps 677 mmHg 23%
    13:00 +17°C° 0 mm 2 mps 677 mmHg 23%
    14:00 +17°C° 0 mm 2 mps 676 mmHg 24%
    15:00 +17°C° 0 mm 2 mps 676 mmHg 24%
    16:00 +15°C° 0 mm 1 mps 676 mmHg 29%
    17:00 +14°C° 0 mm 1 mps 676 mmHg 34%
    18:00 +11°C° 0 mm 0 mps 675 mmHg 39%
    19:00 +10°C° 0 mm 0 mps 676 mmHg 40%
    20:00 +11°C° 0 mm 1 mps 676 mmHg 40%
    21:00 +11°C° 0 mm 1 mps 676 mmHg 40%
    22:00 +10°C° 0 mm 1 mps 676 mmHg 41%
    23:00 +10°C° 0 mm 1 mps 676 mmHg 41%
    Show more